Location: Observatoire
(46.1952°N, 5.3391°E)
Time: 03:50:48
(UTC+01:00)

ISS - Visible Passes

Search period start: 21 January 2026 00:00
Search period end: 31 January 2026 00:00
Orbit: 413 x 424 km, 51.6° (Epoch: 20 January)

Date Brightness Start Highest point End Pass type
(mag) Time Alt. Az. Time Alt. Az. Time Alt. Az.
21 Jan -2.6 18:40:51 10° WNW 18:43:53 30° N 18:45:22 21° NE visible
21 Jan -0.6 20:17:52 10° WNW 20:18:19 13° NW 20:18:19 13° NW visible
22 Jan -2.5 19:29:56 10° WNW 19:32:22 33° NNW 19:32:22 33° NNW visible
23 Jan -2.8 18:41:55 10° WNW 18:45:00 33° N 18:46:26 23° NE visible
23 Jan -0.7 20:18:41 10° WNW 20:19:22 15° WNW 20:19:22 15° WNW visible
24 Jan -3.3 19:30:41 10° WNW 19:33:28 52° NNW 19:33:28 52° NNW visible
25 Jan -3.4 18:42:38 10° WNW 18:45:52 46° NNE 18:47:36 23° E visible
25 Jan -0.9 20:19:29 10° WNW 20:20:32 18° W 20:20:32 18° W visible
26 Jan -3.5 19:31:17 10° WNW 19:34:36 62° SSW 19:34:45 60° SSW visible
27 Jan -3.8 18:43:07 10° WNW 18:46:28 87° NNE 18:49:05 16° ESE visible
27 Jan -0.8 20:20:40 10° W 20:22:02 15° WSW 20:22:02 15° WSW visible
28 Jan -1.7 19:32:00 10° W 19:34:50 25° SW 19:36:32 17° S visible
29 Jan -2.5 18:43:34 10° WNW 18:46:44 40° SW 18:49:53 10° SE visible
30 Jan -0.4 19:34:03 10° WSW 19:34:42 10° SW 19:35:22 10° SW visible
